DW8913 Weather Reports


time (UTC)temp
C
wind
direction
speed
KPH
gust
KPH
rain 1hr
cm
rain 24hr
cm
rain mn
cm
humidity
%
barometer
mb
20260507194602 13 143 0.0 6.4 0.03 0.05 0.05 79 1008.2
20260507193042 13 168 0.0 4.8 0.03 0.05 0.05 76 1008.4
20260507191503 13 134 1.6 8.0 0.00 0.03 0.03 74 1008.4
20260507190050 13 307 0.0 4.8 0.00 0.03 0.03 73 1009.0
20260507184515 13 214 0.0 4.8 0.00 0.03 0.03 74 1009.0
20260507183057 14 216 1.6 6.4 0.00 0.03 0.03 71 1008.9
20260507181532 14 82 1.6 8.0 0.00 0.03 0.03 68 1008.8
20260507180108 15 199 3.2 9.7 0.00 0.03 0.03 66 1009.3
20260507174551 15 203 1.6 8.0 0.00 0.03 0.03 67 1009.3
20260507173015 15 79 0.0 8.0 0.00 0.03 0.03 67 1009.7
20260507171601 15 155 0.0 6.4 0.00 0.03 0.03 65 1009.7
20260507170022 15 82 0.0 4.8 0.00 0.03 0.03 67 1009.7
20260507164606 15 281 0.0 3.2 0.00 0.03 0.03 68 1010.1
20260507163042 14 217 0.0 1.6 0.00 0.03 0.03 67 1010.4
20260507161513 13 24 0.0 4.8 0.00 0.03 0.03 66 1010.5
20260507160053 14 248 0.0 3.2 0.00 0.03 0.03 65 1010.5
20260507154520 14 108 1.6 6.4 0.00 0.03 0.03 64 1010.7
20260507153115 13 56 1.6 8.0 0.00 0.03 0.03 65 1011.0
20260507151531 14 244 0.0 4.8 0.00 0.03 0.03 64 1011.2
20260507150002 13 191 0.0 8.0 0.00 0.03 0.03 66 1011.0
20260507144544 13 68 3.2 11.3 0.00 0.03 0.03 66 1011.0
20260507143018 13 226 3.2 11.3 0.00 0.03 0.03 66 1011.0
20260507141557 13 75 3.2 17.7 0.00 0.03 0.03 68 1011.1
20260507140030 13 351 1.6 11.3 0.00 0.03 0.03 69 1011.2
20260507134621 13 237 3.2 8.0 0.00 0.03 0.03 72 1011.3
20260507133040 12 323 3.2 9.7 0.00 0.03 0.03 74 1011.2
20260507131524 12 150 0.0 4.8 0.00 0.03 0.03 76 1011.2
20260507130110 12 39 0.0 8.0 0.00 0.03 0.03 78 1011.4
20260507124525 12 314 0.0 4.8 0.00 0.03 0.03 79 1011.1
20260507123110 11 45 0.0 9.7 0.00 0.03 0.03 79 1011.1
20260507121531 11 56 1.6 8.0 0.00 0.03 0.03 80 1011.0
20260507120006 11 51 1.6 9.7 0.00 0.03 0.03 80 1011.0
20260507114545 11 38 0.0 6.4 0.00 0.03 0.03 80 1010.8
20260507113018 11 78 0.0 11.3 0.00 0.03 0.03 80 1010.7
20260507111556 11 77 0.0 8.0 0.00 0.03 0.03 81 1010.8
20260507110028 11 34 1.6 6.4 0.00 0.03 0.03 81 1010.9
20260507104502 11 3 1.6 11.3 0.00 0.03 0.03 82 1010.7
20260507103042 11 342 0.0 3.2 0.00 0.03 0.03 84 1010.3
20260507101513 11 58 1.6 14.5 0.00 0.03 0.03 81 1010.1
20260507094521 11 25 3.2 11.3 0.00 0.03 0.03 81 1009.7
20260507093103 11 44 4.8 12.9 0.00 0.03 0.03 82 1009.3
20260507091535 11 36 4.8 17.7 0.00 0.03 0.03 82 1009.5
20260507090007 12 253 3.2 14.5 0.00 0.03 0.03 85 1009.4
20260507084550 12 52 4.8 17.7 0.00 0.03 0.03 86 1009.1
20260507083019 12 309 4.8 16.1 0.00 0.03 0.03 86 1009.0
20260507081604 12 51 6.4 19.3 0.03 0.03 0.03 85 1008.8
20260507080030 13 357 6.4 22.5 0.03 0.03 0.03 86 1008.4
20260507074504 13 18 4.8 12.9 0.03 0.03 0.03 88 1008.2
20260507073054 14 199 1.6 17.7 0.03 0.03 0.03 88 1007.7
20260507071515 16 316 3.2 14.5 0.00 0.00 0.00 88 1008.1
20260507070106 17 37 1.6 9.7 0.00 0.00 0.00 87 1007.7
20260507064537 17 13 0.0 4.8 0.00 0.00 0.00 87 1007.8
20260507063001 17 262 1.6 6.4 0.00 0.00 0.00 87 1007.6
20260507061544 17 249 1.6 6.4 0.00 0.00 0.00 89 1007.4
20260507060020 16 91 0.0 0.0 0.00 0.00 0.00 87 1007.5
20260507054556 16 160 0.0 0.0 0.00 0.00 0.00 87 1007.8
20260507053021 16 99 0.0 1.6 0.00 0.00 0.00 89 1007.6
20260507051605 15 107 0.0 1.6 0.00 0.00 0.00 89 1007.5
20260507050035 15 155 0.0 1.6 0.00 0.00 0.00 89 1007.9
20260507044501 15 140 0.0 0.0 0.00 0.00 0.00 89 1008.1
20260507043043 15 163 0.0 0.0 0.00 0.00 0.00 89 1008.0
20260507041522 15 163 0.0 0.0 0.00 0.00 0.00 89 1008.1
20260507040048 14 153 0.0 1.6 0.00 0.00 0.00 90 1008.1
20260507034520 14 113 0.0 4.8 0.00 0.00 0.00 90 1008.1
20260507033100 14 177 0.0 1.6 0.00 0.00 0.00 89 1008.1
20260507031531 14 134 0.0 4.8 0.00 0.00 0.00 88 1007.9
20260507030001 15 127 0.0 0.0 0.00 0.00 0.00 87 1008.0
20260507024554 15 99 0.0 0.0 0.00 0.00 0.00 87 1008.3
20260507023124 15 98 0.0 0.0 0.00 0.00 0.00 89 1008.3
20260507021559 15 99 0.0 0.0 0.00 0.00 0.00 88 1008.9
20260507020024 15 115 0.0 3.2 0.00 0.00 0.00 88 1008.8
20260507014609 15 157 0.0 1.6 0.00 0.00 0.00 86 1008.6
20260507013027 16 146 0.0 0.0 0.00 0.00 0.00 86 1008.9
20260507011608 16 145 0.0 0.0 0.00 0.00 0.00 85 1009.0
20260507010042 16 174 0.0 1.6 0.00 0.00 0.00 85 1008.9
20260507004528 16 118 0.0 0.0 0.00 0.00 0.00 84 1008.7
20260507003054 17 141 0.0 1.6 0.00 0.00 0.00 83 1008.4
20260507001526 17 139 0.0 1.6 0.00 0.00 0.00 82 1008.3
20260507000109 17 143 0.0 1.6 0.00 0.00 0.00 82 1008.3
20260506234538 17 172 0.0 3.2 0.00 0.00 0.00 81 1008.5
20260506233001 18 112 0.0 1.6 0.00 0.00 0.00 79 1008.3
20260506231555 18 171 0.0 4.8 0.00 0.00 0.00 79 1008.4
20260506230013 17 107 0.0 4.8 0.00 0.00 0.00 80 1008.5
20260506224600 18 138 0.0 6.4 0.00 0.00 0.00 79 1008.2
20260506223045 19 52 0.0 4.8 0.00 0.00 0.00 76 1008.1
20260506221502 19 72 0.0 9.7 0.00 0.00 0.00 76 1008.3
20260506220045 19 148 3.2 12.9 0.00 0.00 0.00 76 1008.3
20260506214514 19 92 3.2 11.3 0.00 0.00 0.00 75 1008.2
20260506213127 19 93 3.2 12.9 0.00 0.00 0.00 75 1007.8
20260506211533 20 71 1.6 11.3 0.00 0.00 0.00 75 1007.9
20260506210110 20 123 3.2 9.7 0.00 0.00 0.00 75 1007.7
20260506204545 19 72 3.2 11.3 0.00 0.00 0.00 76 1007.6
20260506203014 18 148 3.2 14.5 0.00 0.00 0.00 76 1007.7
20260506201559 18 105 1.6 9.7 0.00 0.00 0.00 76 1007.7
20260506200016 19 94 4.8 14.5 0.00 0.00 0.00 76 1007.9